[keps] orb10161.amsat
Ray Hoad
ray.hoad at mypbmail.com
Thu Jun 10 19:31:41 PDT 2010
SB KEPS @ AMSAT $ORB10161.O
Orbital Elements 10161.OSCAR
HR AMSAT ORBITAL ELEMENTS FOR OSCAR SATELLITES
FROM WA5QGD FORT WORTH,TX June 10, 2010
Send Subscribe/unsubscribe to KEPS at http://www.amsat.org/mailman/listinfo/keps
BID: ORB10161.O
TO ALL RADIO AMATEURS BT
Satellite: AO-07
Catalog number: 07530
Epoch time: 10160.62105539
Element set: 0799
Inclination: 101.3997 deg
RA of node: 176.7804 deg
Eccentricity: 0.0011693
Arg of perigee: 290.8065 deg
Mean anomaly: 069.1750 deg
Mean motion: 12.53578524 rev/day
Decay rate: -2.7e-07 rev/day^2
Epoch rev: 62750
Checksum: 310
Satellite: FO-29
Catalog number: 24278
Epoch time: 10161.59715908
Element set: 326
Inclination: 098.5140 deg
RA of node: 351.6408 deg
Eccentricity: 0.0351330
Arg of perigee: 140.8521 deg
Mean anomaly: 221.8608 deg
Mean motion: 13.52950393 rev/day
Decay rate: 1.0e-08 rev/day^2
Epoch rev: 68221
Checksum: 287
Satellite: SO-33
Catalog number: 25509
Epoch time: 10160.43064524
Element set: 0730
Inclination: 031.4336 deg
RA of node: 192.3872 deg
Eccentricity: 0.0354393
Arg of perigee: 222.0790 deg
Mean anomaly: 135.2103 deg
Mean motion: 14.28309366 rev/day
Decay rate: -2.0e-07 rev/day^2
Epoch rev: 60694
Checksum: 270
Satellite: RS-22
Catalog number: 27939
Epoch time: 10161.62837913
Element set: 260
Inclination: 097.8944 deg
RA of node: 027.3938 deg
Eccentricity: 0.0014779
Arg of perigee: 081.2189 deg
Mean anomaly: 279.0680 deg
Mean motion: 14.63424968 rev/day
Decay rate: 1.68e-06 rev/day^2
Epoch rev: 35799
Checksum: 357
Satellite: VO-52
Catalog number: 28650
Epoch time: 10160.70510943
Element set: 0524
Inclination: 097.6929 deg
RA of node: 214.4314 deg
Eccentricity: 0.0025990
Arg of perigee: 302.7729 deg
Mean anomaly: 057.1002 deg
Mean motion: 14.81755492 rev/day
Decay rate: -5.0e-08 rev/day^2
Epoch rev: 27558
Checksum: 298
Satellite: SO-67
Catalog number: 35870
Epoch time: 10161.74273618
Element set: 808
Inclination: 097.3322 deg
RA of node: 211.0488 deg
Eccentricity: 0.0004567
Arg of perigee: 108.0340 deg
Mean anomaly: 031.4137 deg
Mean motion: 15.20914603 rev/day
Decay rate: 4.46e-06 rev/day^2
Epoch rev: 4047
Checksum: 276
Satellite: HO-68
Catalog number: 36122
Epoch time: 10161.71145695
Element set: 384
Inclination: 100.4684 deg
RA of node: 222.2063 deg
Eccentricity: 0.0007511
Arg of perigee: 354.6440 deg
Mean anomaly: 005.4587 deg
Mean motion: 13.16281003 rev/day
Decay rate: -4.5e-07 rev/day^2
Epoch rev: 2336
Checksum: 259
/EX
SB KEPS @ AMSAT $ORB10161.D
Orbital Elements 10161.MICROS
HR AMSAT ORBITAL ELEMENTS FOR THE MICROSATS
FROM WA5QGD FORT WORTH,TX June 10, 2010
Send Subscribe/unsubscribe to KEPS at http://www.amsat.org/mailman/listinfo/keps
BID: ORB10161.D
TO ALL RADIO AMATEURS BT
Satellite: UO-11
Catalog number: 14781
Epoch time: 10160.65202095
Element set: 0263
Inclination: 098.0562 deg
RA of node: 212.3704 deg
Eccentricity: 0.0007967
Arg of perigee: 262.3129 deg
Mean anomaly: 097.7204 deg
Mean motion: 14.79808686 rev/day
Decay rate: 2.90e-06 rev/day^2
Epoch rev: 41069
Checksum: 301
Satellite: AO-16
Catalog number: 20439
Epoch time: 10161.69016221
Element set: 916
Inclination: 098.3314 deg
RA of node: 119.8516 deg
Eccentricity: 0.0010805
Arg of perigee: 180.4949 deg
Mean anomaly: 179.6221 deg
Mean motion: 14.31863622 rev/day
Decay rate: 1.5e-07 rev/day^2
Epoch rev: 6445
Checksum: 285
Satellite: LO-19
Catalog number: 20442
Epoch time: 10161.47932357
Element set: 827
Inclination: 098.2912 deg
RA of node: 125.4789 deg
Eccentricity: 0.0011950
Arg of perigee: 176.5292 deg
Mean anomaly: 183.5968 deg
Mean motion: 14.32095166 rev/day
Decay rate: 6.2e-07 rev/day^2
Epoch rev: 6459
Checksum: 323
Satellite: AO-27
Catalog number: 22825
Epoch time: 10160.87266922
Element set: 0551
Inclination: 098.4843 deg
RA of node: 109.0118 deg
Eccentricity: 0.0007533
Arg of perigee: 293.6738 deg
Mean anomaly: 066.3657 deg
Mean motion: 14.29299365 rev/day
Decay rate: 1.1e-07 rev/day^2
Epoch rev: 87100
Checksum: 313
Satellite: IO-26
Catalog number: 22826
Epoch time: 10160.86944686
Element set: 286
Inclination: 098.4783 deg
RA of node: 109.6128 deg
Eccentricity: 0.0008083
Arg of perigee: 289.3558 deg
Mean anomaly: 070.6750 deg
Mean motion: 14.29555428 rev/day
Decay rate: 1.3e-07 rev/day^2
Epoch rev: 87111
Checksum: 331
Satellite: GO-32
Catalog number: 25397
Epoch time: 10161.56251966
Element set: 206
Inclination: 098.3127 deg
RA of node: 169.3776 deg
Eccentricity: 0.0000430
Arg of perigee: 341.5453 deg
Mean anomaly: 018.5707 deg
Mean motion: 14.23179517 rev/day
Decay rate: 8.9e-07 rev/day^2
Epoch rev: 61910
Checksum: 302
Satellite: NO-44
Catalog number: 26931
Epoch time: 10160.64834270
Element set: 478
Inclination: 067.0517 deg
RA of node: 223.3971 deg
Eccentricity: 0.0005590
Arg of perigee: 265.1976 deg
Mean anomaly: 094.8477 deg
Mean motion: 14.29598500 rev/day
Decay rate: -2.30e-06 rev/day^2
Epoch rev: 45367
Checksum: 321
Satellite: SO-50
Catalog number: 27607
Epoch time: 10161.55233805
Element set: 195
Inclination: 064.5584 deg
RA of node: 016.6711 deg
Eccentricity: 0.0034671
Arg of perigee: 080.0705 deg
Mean anomaly: 280.4311 deg
Mean motion: 14.71546567 rev/day
Decay rate: 8.8e-07 rev/day^2
Epoch rev: 40140
Checksum: 278
Satellite: CO-55
Catalog number: 27844
Epoch time: 10160.55942449
Element set: 864
Inclination: 098.7085 deg
RA of node: 169.6428 deg
Eccentricity: 0.0009387
Arg of perigee: 187.7477 deg
Mean anomaly: 172.3570 deg
Mean motion: 14.20711640 rev/day
Decay rate: 6.6e-07 rev/day^2
Epoch rev: 36000
Checksum: 327
Satellite: CO-57
Catalog number: 27848
Epoch time: 10161.57401964
Element set: 815
Inclination: 098.7132 deg
RA of node: 169.7354 deg
Eccentricity: 0.0009245
Arg of perigee: 189.8643 deg
Mean anomaly: 170.2348 deg
Mean motion: 14.20503628 rev/day
Decay rate: 3.1e-07 rev/day^2
Epoch rev: 36010
Checksum: 305
Satellite: AO-51
Catalog number: 28375
Epoch time: 10160.92591994
Element set: 0697
Inclination: 098.0617 deg
RA of node: 154.8358 deg
Eccentricity: 0.0084435
Arg of perigee: 118.6272 deg
Mean anomaly: 242.3444 deg
Mean motion: 14.40687235 rev/day
Decay rate: 2.3e-07 rev/day^2
Epoch rev: 31246
Checksum: 320
Satellite: GENESAT1
Catalog number: 29655
Epoch time: 10161.87274791
Element set: 96
Inclination: 040.0174 deg
RA of node: 069.9937 deg
Eccentricity: 0.0010580
Arg of perigee: 276.5638 deg
Mean anomaly: 083.4003 deg
Mean motion: 15.92758979 rev/day
Decay rate: 9.0750e-04 rev/day^2
Epoch rev: 19898
Checksum: 350
Satellite: CP3
Catalog number: 31129
Epoch time: 10161.60127673
Element set: 598
Inclination: 097.9377 deg
RA of node: 201.5276 deg
Eccentricity: 0.0100320
Arg of perigee: 253.7365 deg
Mean anomaly: 105.2653 deg
Mean motion: 14.52263152 rev/day
Decay rate: -7.3e-07 rev/day^2
Epoch rev: 16690
Checksum: 280
Satellite: CO-65
Catalog number: 32785
Epoch time: 10161.68145260
Element set: 703
Inclination: 097.8970 deg
RA of node: 226.6977 deg
Eccentricity: 0.0014094
Arg of perigee: 309.9582 deg
Mean anomaly: 050.0416 deg
Mean motion: 14.81664009 rev/day
Decay rate: 3.84e-06 rev/day^2
Epoch rev: 11452
Checksum: 313
Satellite: KKS-1
Catalog number: 33493
Epoch time: 10161.76830872
Element set: 562
Inclination: 098.0851 deg
RA of node: 281.2052 deg
Eccentricity: 0.0020381
Arg of perigee: 158.2468 deg
Mean anomaly: 201.9623 deg
Mean motion: 14.81005812 rev/day
Decay rate: 4.26e-06 rev/day^2
Epoch rev: 7453
Checksum: 279
Satellite: SOHLA-1
Catalog number: 33496
Epoch time: 10160.80701960
Element set: 0125
Inclination: 098.0582 deg
RA of node: 269.9776 deg
Eccentricity: 0.0005953
Arg of perigee: 218.6737 deg
Mean anomaly: 141.4064 deg
Mean motion: 14.69497023 rev/day
Decay rate: -4.3e-07 rev/day^2
Epoch rev: 07379
Checksum: 317
/EX
SB KEPS @ AMSAT $ORB10161.W
Orbital Elements 10161.WEATHER
HR AMSAT ORBITAL ELEMENTS FOR WEATHER SATELLITES
FROM WA5QGD FORT WORTH,TX June 10, 2010
Send Subscribe/unsubscribe to KEPS at http://www.amsat.org/mailman/listinfo/keps
BID: ORB10161.W
TO ALL RADIO AMATEURS BT
Satellite: NOAA-10
Catalog number: 16969
Epoch time: 10160.65266361
Element set: 0094
Inclination: 098.6565 deg
RA of node: 189.6906 deg
Eccentricity: 0.0011612
Arg of perigee: 230.7961 deg
Mean anomaly: 129.2167 deg
Mean motion: 14.27418096 rev/day
Decay rate: -5.3e-07 rev/day^2
Epoch rev: 23450
Checksum: 309
Satellite: NOAA-11
Catalog number: 19531
Epoch time: 10160.81527933
Element set: 0107
Inclination: 098.7690 deg
RA of node: 249.9647 deg
Eccentricity: 0.0011587
Arg of perigee: 164.9793 deg
Mean anomaly: 195.1733 deg
Mean motion: 14.14926330 rev/day
Decay rate: -1.77e-06 rev/day^2
Epoch rev: 12009
Checksum: 316
Satellite: NOAA-12
Catalog number: 21263
Epoch time: 10160.77123536
Element set: 0593
Inclination: 098.7643 deg
RA of node: 173.9327 deg
Eccentricity: 0.0012214
Arg of perigee: 183.4633 deg
Mean anomaly: 176.6454 deg
Mean motion: 14.25637746 rev/day
Decay rate: 2.13e-06 rev/day^2
Epoch rev: 99134
Checksum: 303
Satellite: MET-3/5
Catalog number: 21655
Epoch time: 10160.58333194
Element set: 0834
Inclination: 082.5563 deg
RA of node: 314.0070 deg
Eccentricity: 0.0013649
Arg of perigee: 014.3565 deg
Mean anomaly: 345.7893 deg
Mean motion: 13.17022209 rev/day
Decay rate: 5.1e-07 rev/day^2
Epoch rev: 90467
Checksum: 286
Satellite: MET-2/21
Catalog number: 22782
Epoch time: 10160.77097986
Element set: 0799
Inclination: 082.5481 deg
RA of node: 258.3230 deg
Eccentricity: 0.0023817
Arg of perigee: 065.4265 deg
Mean anomaly: 294.9383 deg
Mean motion: 13.83646254 rev/day
Decay rate: -1.3e-07 rev/day^2
Epoch rev: 84705
Checksum: 332
Satellite: OKEAN-4
Catalog number: 23317
Epoch time: 10161.70854430
Element set: 255
Inclination: 082.5412 deg
RA of node: 359.9085 deg
Eccentricity: 0.0020395
Arg of perigee: 263.5111 deg
Mean anomaly: 096.3779 deg
Mean motion: 14.82823402 rev/day
Decay rate: 1.3e-07 rev/day^2
Epoch rev: 84549
Checksum: 291
